User: anonymous   Login
Location: Unspecified
(0.0000°N, 0.0000°E)
Time: 12:42:57
(UTC+00:00)
Language:

ISS - Orbit

View from above orbital plane
View from above orbital plane
View from above satellite
View from above satellite

Ground track
Ground track

The orbit data is extracted from the following two-line orbital elements,

1 25544U 98067A   17201.53749030  .00016717  00000-0  10270-3 0  9032
2 25544  51.6394 232.0882 0006023  52.1764 307.9931 15.54212424 26933
Epoch (UTC): 20 July 2017 12:53:59
Eccentricity: 0.0006023
inclination: 51.6394°
perigee height: 400 km
apogee height: 408 km
right ascension of ascending node: 232.0882°
argument of perigee: 52.1764°
revolutions per day: 15.54212424
mean anomaly at epoch: 307.9931°
orbit number at epoch: 2693

The dashed part of the orbit path shows where the satellite is in the earth's shadow,  

DLR